User: anonymous   Login
Location: Waning Moon II Observatory
(30.3730°N, 89.7620°W)
Time: 23:19:48
(UTC-06:00)
Language:

Meteor 1-21 - Orbit

View from above orbital plane
View from above orbital plane
View from above satellite
View from above satellite

Ground track
Ground track

The orbit data is extracted from the following two-line orbital elements,

1 07714U 75023A   15057.94190121  .00000044  00000-0  18362-4 0  9993
2 07714 081.2086 290.7411 0033087 109.9723 250.5015 14.07861502366829
Epoch (UTC): 26 February 2015 22:36:20
Eccentricity: 0.0033087
inclination: 81.2086°
perigee height: 843 km
apogee height: 890 km
right ascension of ascending node: 290.7411°
argument of perigee: 109.9723°
revolutions per day: 14.07861502
mean anomaly at epoch: 250.5015°
orbit number at epoch: 36682

The dashed part of the orbit path shows where the satellite is in the earth's shadow,  

DLR